Weather Roundup
Issued by NWS Springfield, MO

Home | Current Version | Previous Version | Text Only | Print | Product List | Glossary On
Versions: 1 2 3 4 5 6 7 8 9 10 11 12 13 14 15 16 17 18 19 20 21 22 23 24 25 26 27 28 29 30 31 32 33 34 35 36 37 38 39 40 41 42 43 44 45 46 47 48 49 50
000
NZUS99 KSGF 210959
HRRSGF

HOURLY WEATHER
NATIONAL WEATHER SERVICE SPRINGFIELD MO
400 AM CST SUN DEC 21 2014

......SGF CWA......

CITY           SKY/WX    TMP DP  RH WIND       PRES   REMARKS
SPRINGFIELD    CLOUDY    41  35  79 S10       30.11F
JOPLIN         CLOUDY    43  38  82 S8        30.12S
WEST PLAINS    CLOUDY    38  34  85 S5        30.19R WCI  34
ROLLA          CLOUDY    39  34  82 S8        30.13F WCI  33
OSAGE BEACH    CLOUDY    43  36  75 S8        30.14S

......SURROUNDING SGF CWA......

CITY           SKY/WX    TMP DP  RH WIND       PRES   REMARKS
CHANUTE        CLOUDY    40  38  93 S10       30.09F WCI  33
PARSONS        CLOUDY    42  39  89 S8        30.11F
COFFEYVILLE    CLOUDY    42  38  85 S13       30.11S
EMPORIA        CLOUDY    37  36  96 S9        30.04F WCI  30
SILOAM SPRINGS CLOUDY    43  36  75 S7        30.13F
HARRISON AR    CLOUDY    39  38  96 SE5       30.16F
NEAR YELLVILLE CLOUDY    39  34  81 E3        30.18F

......KANSAS AND MISSOURI......

CITY           SKY/WX    TMP DP  RH WIND       PRES   REMARKS
KANSAS CTY INT CLOUDY    36  33  89 S13       30.07F WCI  27
DOWNTOWN KC    CLOUDY    38  34  85 S8        30.09F WCI  32
COLUMBIA       CLOUDY    40  35  83 SE7       30.14S
SEDALIA        CLOUDY    42  35  76 SW10      30.13S
ST JOSEPH      CLOUDY    35  32  88 S10       30.06F WCI  27
ST LOUIS       CLOUDY    42  33  70 SE6       30.20F
SPIRIT OF STL  CLOUDY    41  34  76 SE3       30.19F
KIRKSVILLE     CLOUDY    39  35  86 S8        30.12F WCI  33
WICHITA        CLOUDY    42  36  79 S13       30.02F
TOPEKA         CLOUDY   N/A N/A N/A S8        30.06F
OLATHE         CLOUDY    36  34  92 S8        30.09S FOG     WCI  30

......TENNESSEE......

CITY           SKY/WX    TMP DP  RH WIND       PRES   REMARKS
MEMPHIS        CLEAR     36  29  75 E7        30.20F WCI  30
NASHVILLE      CLEAR     27  25  92 CALM      30.24F FOG

......ARKANSAS.......

CITY           SKY/WX    TMP DP  RH WIND       PRES   REMARKS
FAYETTEVILLE   CLOUDY    41  39  93 S5        30.14F
FT SMITH       CLOUDY    44  40  85 E5        30.16F
LITTLE ROCK    CLEAR     34  31  88 CALM      30.20F FOG

......OKLAHOMA.......

CITY           SKY/WX    TMP DP  RH WIND       PRES   REMARKS
TULSA          CLOUDY    43  41  93 S6        30.12F
PONCA CITY     CLOUDY    42  37  82 S14       30.06F
MCALESTER      CLOUDY    44  43  96 CALM      30.12F
OKLAHOMA CITY  CLOUDY    43  38  82 S9        30.06F

......IOWA............

CITY           SKY/WX    TMP DP  RH WIND       PRES   REMARKS
DES MOINES     CLOUDY    39  35  86 S12       30.03F WCI  32
QUAD CITIES    CLOUDY    35  32  88 S3        30.15F

......ILLINOIS........

CITY           SKY/WX    TMP DP  RH WIND       PRES   REMARKS
QUINCY         CLOUDY    38  34  85 S7        30.16F WCI  33
CHICAGO        CLOUDY    32  27  81 S7        30.21F WCI  26



USA.gov is the U.S. government's official web portal to all federal, state and local government web resources and services.